Temp
32 32 31 33 35 32 33 33 32 33 36 35 34 33 32 33 34 31 23 22 25 28 29 28 27 26 25 24 24 23 22 22 21 20 20 20 21 20 20 20 21 21 21 20
32 31 33 35 35 33 34 34 35 34 35 35 34 35 35 35 35 34 26 19 25 28 27 29 28 27 26 24 23 22 22 22 21 20 20 20 21 20 21 20 21 22 21 19
32 33 34 35 34 33 34 35 34 31 31 35 35 34 34 35 34 34 34 27 28 28 30 29 28 27 26 25 23 22 22 21 21 20 20 20 20 20 20 20 21 20 20 20
33 34 35 34 34 31 33 35 35 34 34 33 34 31 32 25 23 32 34 34 33 32 31 30 29 28 26 25 23 22 21 21 21 21 20 19 20 19 21 21 20 20 20 20
32 34 34 34 34 33 34 34 34 35 34 34 34 32 33 30 25 26 33 34 33 33 32 31 29 28 27 25 23 22 21 20 20 21 20 20 20 19 20 21 20 21 20 20
33 35 35 35 36 36 36 32 34 34 34 33 35 33 32 29 23 22 31 34 33 33 32 31 30 28 26 25 23 22 21 20 20 20 21 20 19 20 20 20 20 20 21 20
33 34 35 35 34 35 35 34 32 32 32 30 31 28 33 33 33 35 35 34 33 33 32 31 30 28 26 25 23 22 21 20 20 19 19 19 20 19 20 20 20 20 20 20
31 31 34 35 34 34 34 34 33 30 24 24 30 26 30 36 36 35 35 34 33 33 32 31 29 27 26 25 23 22 20 21 20 19 20 20 20 20 20 19 20 19 19 19
32 32 35 35 35 35 33 33 36 33 28 29 32 33 34 36 35 35 35 34 33 32 31 30 29 27 26 24 23 22 20 20 20 19 20 20 20 19 19 20 20 19 19 18
34 32 35 35 35 35 34 34 33 33 28 28 32 32 30 33 34 35 35 33 33 32 31 30 29 28 26 25 23 22 21 20 20 20 20 20 19 19 19 19 18 18 17 17
34 33 34 35 34 34 34 33 31 34 34 32 32 31 32 28 32 34 35 33 32 31 31 30 29 28 26 25 23 22 21 21 21 20 19 20 19 19 19 19 19 18 18 17
34 33 32 34 36 36 35 35 34 33 31 34 34 31 33 33 35 35 34 33 33 31 31 30 28 27 25 24 23 22 22 22 21 20 20 20 19 19 20 19 19 19 18 17
34 32 31 32 34 35 34 35 36 36 36 34 33 30 25 28 28 32 34 33 32 31 30 29 27 26 25 24 23 23 22 21 21 21 20 20 19 19 20 20 19 18 18 18
32 33 32 30 24 32 33 34 35 35 34 32 30 26 23 25 25 27 34 33 32 31 29 28 26 25 25 23 22 22 22 22 21 21 20 20 19 19 19 19 18 18 18 18
33 31 32 32 30 32 35 35 35 34 35 32 29 26 22 20 22 26 32 33 32 31 29 27 26 25 24 22 21 21 21 21 21 20 20 20 19 19 18 18 18 18 18 17
33 31 32 32 32 32 33 35 34 34 34 33 32 24 24 22 26 23 32 32 32 30 28 27 26 24 23 22 22 21 21 21 20 20 20 19 18 18 18 18 18 18 18 17
32 32 31 30 31 30 30 33 34 32 31 33 33 30 24 25 22 24 31 31 31 29 27 26 25 24 23 22 22 21 21 20 19 19 19 18 18 18 18 18 17 17 17 16
31 31 32 31 26 26 33 36 36 32 30 33 35 31 30 19 20 31 31 31 30 29 26 25 25 24 24 23 22 21 21 19 18 18 18 18 17 17 17 17 17 16 16 16
34 32 31 31 31 31 33 34 34 33 32 36 35 35 32 31 30 30 30 30 29 26 24 24 24 24 23 23 22 21 20 17 18 18 17 17 18 17 17 16 16 16 15 14
34 33 32 31 30 30 32 33 34 33 29 35 35 34 32 30 31 28 27 25 24 23 23 24 24 22 21 21 20 19 18 17 17 18 16 17 18 19 16 15 15 15 15 15
32 32 31 32 30 29 21 23 32 28 29 33 33 32 31 29 28 24 23 22 22 21 22 22 22 20 19 19 20 19 18 19 19 17 15 17 17 16 14 15 15 14 13 13
31 31 32 32 31 27 26 28 31 26 31 31 31 28 27 25 23 22 22 21 20 20 20 20 19 17 17 18 18 18 18 18 16 17 18 16 15 16 15 14 12 13 13 12
28 28 26 24 22 18 21 23 29 30 29 30 28 27 26 25 23 22 20 20 20 19 18 17 17 16 15 17 17 18 17 17 18 18 16 14 14 14 13 13 12 12 12 12
23 23 24 22 18 19 26 26 27 30 30 29 27 26 25 24 23 22 20 20 19 18 18 17 16 15 15 16 17 17 18 18 18 16 14 15 13 13 13 12 12 11 11 11
26 27 28 24 19 22 25 26 29 29 29 29 27 26 25 24 23 22 21 20 20 19 18 17 16 14 15 16 17 18 18 17 15 15 14 14 13 13 13 13 12 12 11 10
27 25 25 21 24 23 26 28 29 29 29 29 27 26 25 25 24 23 21 20 19 18 17 16 15 14 14 16 17 17 17 17 14 14 13 13 13 13 13 12 12 12 11 10
Height
1487 1490 1490 1480 1470 1480 1481 1483 1487 1477 1465 1471 1472 1473 1474 1472 1475 1480 1485 1494 1507 1501 1497 1504 1513 1514 1515 1519 1520 1525 1529 1533 1536 1538 1540 1543 1542 1541 1543 1541 1544 1546 1545 1543
1484 1487 1476 1471 1467 1479 1475 1475 1472 1469 1468 1472 1470 1469 1464 1466 1472 1477 1481 1491 1493 1489 1492 1501 1510 1514 1518 1517 1518 1523 1528 1531 1533 1536 1539 1541 1541 1540 1541 1541 1543 1543 1540 1538
1481 1473 1472 1469 1469 1477 1471 1470 1473 1486 1480 1466 1469 1473 1468 1467 1472 1476 1476 1477 1477 1476 1489 1497 1506 1511 1515 1518 1520 1522 1525 1528 1532 1535 1537 1538 1539 1541 1540 1542 1542 1541 1541 1539
1473 1466 1465 1468 1467 1477 1478 1460 1464 1470 1476 1488 1464 1499 1478 1486 1497 1480 1476 1476 1476 1479 1488 1494 1500 1508 1513 1516 1520 1523 1525 1528 1531 1534 1536 1538 1539 1540 1541 1543 1543 1541 1539 1538
1472 1465 1464 1466 1463 1464 1466 1465 1469 1466 1469 1470 1470 1486 1472 1484 1503 1487 1476 1476 1477 1478 1485 1492 1497 1504 1509 1514 1520 1523 1526 1528 1530 1532 1535 1537 1538 1541 1542 1543 1542 1540 1538 1537
1462 1456 1459 1458 1454 1453 1456 1476 1467 1465 1466 1485 1457 1474 1481 1487 1490 1489 1477 1472 1476 1476 1483 1490 1495 1502 1507 1513 1519 1522 1524 1527 1529 1531 1534 1536 1539 1541 1541 1541 1542 1541 1540 1537
1463 1459 1453 1454 1457 1454 1457 1464 1488 1495 1487 1503 1479 1494 1473 1463 1462 1460 1465 1468 1474 1478 1484 1491 1498 1503 1507 1513 1518 1522 1523 1526 1529 1531 1532 1535 1537 1538 1539 1540 1541 1540 1539 1536
1474 1479 1456 1450 1457 1461 1459 1460 1479 1505 1543 1531 1494 1511 1488 1454 1454 1459 1459 1466 1473 1479 1485 1492 1499 1505 1510 1513 1517 1521 1523 1525 1528 1531 1533 1535 1537 1539 1540 1538 1538 1538 1538 1536
1461 1465 1446 1447 1451 1453 1460 1466 1448 1466 1500 1511 1481 1470 1460 1451 1455 1459 1459 1463 1473 1480 1486 1492 1499 1505 1510 1513 1517 1520 1523 1525 1528 1531 1533 1535 1536 1538 1538 1538 1537 1537 1536 1535
1446 1461 1440 1442 1447 1449 1452 1452 1468 1462 1512 1519 1480 1475 1481 1464 1462 1459 1461 1466 1472 1480 1487 1493 1498 1504 1509 1514 1517 1520 1523 1525 1529 1530 1532 1534 1536 1537 1537 1538 1538 1537 1536 1535
1446 1447 1445 1436 1447 1452 1453 1458 1466 1456 1459 1477 1482 1478 1459 1464 1456 1458 1461 1468 1474 1480 1487 1493 1499 1504 1510 1514 1517 1520 1523 1526 1529 1530 1532 1533 1535 1537 1538 1540 1539 1538 1536 1535
1445 1445 1453 1440 1429 1434 1436 1446 1450 1461 1474 1452 1455 1482 1461 1463 1454 1454 1459 1468 1472 1480 1487 1493 1499 1505 1510 1514 1517 1520 1523 1525 1528 1530 1532 1533 1534 1536 1539 1539 1539 1538 1535 1534
1442 1451 1463 1452 1438 1431 1443 1437 1434 1433 1432 1451 1466 1482 1470 1475 1468 1459 1460 1466 1467 1479 1487 1494 1501 1505 1510 1514 1518 1520 1522 1525 1526 1529 1531 1533 1534 1535 1538 1537 1536 1536 1533 1531
1440 1443 1448 1462 1487 1448 1446 1438 1432 1434 1450 1460 1474 1491 1489 1493 1479 1470 1460 1468 1472 1478 1485 1493 1500 1506 1511 1513 1516 1518 1521 1523 1525 1528 1529 1531 1534 1535 1535 1534 1534 1533 1532 1529
1440 1450 1441 1442 1457 1445 1431 1431 1432 1440 1435 1456 1466 1478 1493 1479 1485 1466 1467 1468 1472 1478 1484 1491 1497 1502 1508 1510 1514 1517 1519 1521 1522 1527 1528 1529 1531 1531 1532 1532 1531 1531 1529 1527
1435 1446 1440 1447 1439 1441 1433 1424 1430 1438 1437 1439 1445 1489 1486 1483 1467 1477 1472 1469 1472 1478 1485 1492 1496 1499 1506 1510 1514 1515 1517 1519 1520 1522 1524 1527 1529 1529 1529 1528 1528 1526 1526 1525
1434 1438 1443 1454 1447 1455 1457 1433 1435 1441 1442 1441 1446 1450 1465 1477 1489 1488 1475 1474 1473 1478 1484 1489 1494 1499 1504 1507 1510 1513 1515 1517 1520 1523 1524 1525 1527 1527 1526 1526 1524 1523 1522 1521
1431 1433 1434 1445 1469 1491 1433 1417 1420 1433 1444 1437 1428 1441 1454 1479 1472 1468 1469 1473 1471 1476 1483 1489 1492 1499 1502 1505 1506 1510 1517 1525 1533 1538 1534 1527 1526 1526 1525 1524 1522 1520 1519 1518
1415 1427 1440 1446 1444 1440 1431 1423 1423 1433 1440 1423 1430 1434 1446 1458 1464 1468 1469 1467 1471 1477 1483 1489 1494 1498 1502 1503 1506 1513 1520 1531 1532 1537 1534 1528 1523 1525 1524 1521 1520 1518 1516 1514
1407 1413 1428 1435 1445 1451 1429 1423 1417 1420 1454 1436 1430 1435 1441 1447 1451 1464 1464 1467 1474 1480 1485 1490 1495 1498 1503 1505 1510 1511 1515 1514 1521 1524 1526 1523 1521 1522 1522 1519 1517 1515 1513 1511
1414 1415 1428 1427 1440 1440 1439 1438 1423 1455 1457 1434 1433 1439 1442 1451 1457 1467 1470 1474 1479 1483 1489 1493 1497 1499 1503 1506 1509 1512 1514 1516 1515 1520 1522 1518 1520 1520 1518 1516 1516 1513 1511 1510
1422 1423 1423 1419 1430 1462 1447 1446 1435 1440 1441 1446 1441 1448 1453 1459 1466 1471 1475 1479 1483 1488 1493 1495 1496 1501 1504 1507 1509 1509 1511 1514 1514 1516 1514 1517 1518 1515 1514 1514 1515 1513 1512 1510
1432 1430 1435 1450 1458 1460 1449 1458 1441 1437 1454 1453 1450 1453 1455 1460 1468 1474 1478 1482 1486 1491 1495 1498 1501 1505 1506 1507 1508 1509 1510 1512 1513 1513 1514 1516 1514 1514 1514 1514 1515 1513 1509 1508
1440 1430 1442 1452 1460 1443 1445 1457 1457 1450 1450 1452 1453 1458 1460 1463 1470 1476 1481 1484 1487 1492 1496 1500 1504 1505 1506 1507 1509 1510 1512 1513 1512 1513 1514 1515 1515 1515 1515 1514 1512 1511 1509 1507
1425 1434 1431 1446 1451 1436 1440 1444 1447 1457 1453 1445 1452 1460 1467 1471 1473 1477 1481 1485 1489 1494 1498 1499 1503 1504 1505 1507 1509 1511 1512 1511 1512 1514 1515 1516 1518 1515 1515 1513 1512 1510 1509 1509
1442 1442 1445 1457 1427 1432 1437 1442 1445 1445 1447 1448 1453 1461 1468 1474 1477 1479 1482 1486 1489 1491 1496 1499 1502 1503 1505 1508 1509 1510 1511 1511 1512 1515 1515 1515 1515 1514 1513 1513 1511 1510 1510 1508
Wind_Speed
22 15 17 21 20 9 16 14 21 18 7 3 11 9 19 22 3 20 29 31 20 24 16 17 15 16 16 14 10 8 13 20 20 20 10 8 11 12 14 12 12 15 22 24
18 19 21 22 19 5 17 12 9 8 6 7 9 7 12 9 7 6 35 43 23 26 16 16 14 15 15 14 10 11 11 11 16 11 11 12 13 9 13 9 12 8 11 5
20 21 20 21 17 16 14 14 4 8 14 9 10 11 5 1 1 8 9 31 22 25 18 19 18 18 15 15 16 14 11 12 13 12 9 14 15 14 13 13 13 15 12 11
20 23 21 19 22 9 20 16 5 12 10 10 8 10 14 15 11 16 10 10 22 20 14 19 20 18 16 15 14 15 19 17 15 14 9 10 10 7 7 4 10 13 15 17
20 21 22 17 22 27 9 5 9 17 10 15 14 9 6 13 5 21 12 12 11 17 16 13 19 19 19 17 14 14 17 18 15 13 11 9 7 4 6 6 8 11 13 14
21 21 16 22 21 19 14 16 15 13 13 13 15 12 10 10 18 29 24 15 10 12 19 12 20 19 21 17 15 11 10 14 15 10 12 5 4 5 5 6 5 8 8 14
16 19 18 24 17 13 17 16 9 12 12 4 15 9 7 17 17 7 11 11 13 8 15 12 13 15 17 17 16 14 12 12 11 10 6 6 3 3 3 6 6 10 11 12
15 14 21 19 18 19 22 15 13 12 5 12 6 6 5 12 11 7 10 15 14 12 15 15 13 14 14 16 17 15 14 13 9 8 6 5 4 3 4 3 9 5 10 10
15 16 20 15 17 22 9 13 19 13 3 10 15 11 17 12 8 7 12 21 17 13 14 18 16 13 14 16 16 15 12 10 7 9 7 8 8 5 5 6 4 5 8 7
21 14 16 18 20 19 17 17 11 11 10 6 14 7 9 8 6 4 11 19 21 17 14 14 14 16 15 14 15 14 11 10 10 9 7 5 2 0 3 4 7 8 8 10
20 19 13 19 18 19 16 13 6 18 13 5 6 9 5 3 5 9 9 17 21 19 15 16 16 14 13 14 13 13 12 10 11 7 8 7 4 2 5 3 4 6 8 11
20 14 15 17 22 20 17 20 23 15 12 12 8 9 13 4 5 10 12 13 23 20 17 16 17 16 14 14 14 13 14 15 10 10 9 7 8 7 0 1 2 6 13 11
14 17 15 15 15 18 18 20 22 17 17 9 4 6 11 25 25 18 10 15 24 23 20 18 18 18 16 14 14 15 13 11 13 13 11 7 5 5 1 2 5 9 13 16
16 18 20 9 14 15 19 23 18 18 12 8 7 10 3 11 18 21 12 16 24 21 25 21 19 15 14 16 15 15 15 15 12 11 10 8 7 4 5 7 8 13 16 17
16 20 22 8 20 23 21 23 17 9 16 6 10 9 7 9 10 25 13 16 15 20 26 25 21 20 16 15 15 14 15 16 16 15 12 13 7 5 6 10 13 16 16 17
18 18 19 10 6 15 19 12 6 8 18 10 7 20 15 20 44 28 11 9 12 20 21 21 19 21 19 16 15 14 15 17 18 19 14 10 7 7 10 13 15 16 16 16
18 16 16 11 2 11 20 10 11 2 14 10 4 14 18 9 20 36 11 11 12 17 24 23 20 16 18 18 14 16 16 15 15 15 11 6 5 9 13 14 12 12 14 16
17 17 14 14 19 24 15 13 18 18 14 27 4 19 26 41 53 13 13 11 16 19 21 22 19 16 18 16 15 14 13 8 4 5 4 3 6 11 13 10 12 15 17 18
20 16 13 13 13 9 18 16 4 4 9 6 2 7 24 21 20 13 12 11 17 20 20 20 15 12 11 15 16 14 18 17 6 6 8 7 8 12 14 12 17 18 18 19
17 18 13 13 15 13 5 19 7 16 4 8 12 12 17 9 5 9 21 20 20 17 15 15 16 17 13 12 13 14 19 21 16 2 10 14 13 14 13 14 19 21 21 17
15 15 16 15 6 2 1 25 3 6 4 8 13 12 12 10 16 21 20 19 17 16 18 16 16 18 13 15 14 15 18 13 5 2 7 9 12 10 11 18 18 14 14 17
11 10 11 16 13 9 9 32 3 8 6 3 15 20 25 27 24 20 19 18 16 17 16 15 15 16 12 14 11 11 7 4 7 7 6 10 11 11 11 10 13 13 12 10
1 10 5 6 3 12 19 24 23 30 18 4 17 17 22 24 21 21 19 19 19 18 15 14 15 14 11 11 8 6 9 6 1 3 5 7 9 11 9 12 8 9 9 12
6 9 6 5 4 6 21 11 9 9 7 9 15 15 17 22 21 20 19 19 18 17 16 15 12 10 9 9 11 11 6 0 5 6 5 5 6 8 10 5 6 7 10 20
7 7 0 8 10 13 16 28 9 6 4 12 17 16 16 17 19 19 19 19 18 16 14 14 13 12 11 12 10 6 2 5 3 4 3 6 1 7 6 8 9 10 12 16
4 12 8 5 24 24 19 18 6 6 4 12 18 20 18 15 15 16 17 18 18 17 17 16 14 13 12 10 7 3 4 3 6 5 3 4 4 4 5 6 8 8 11 13
Wind_Direction
219 229 234 235 240 110 263 199 206 232 91 250 284 154 172 220 196 140 144 133 7 267 171 175 186 187 183 207 213 206 192 188 196 201 215 222 226 217 239 215 249 267 270 258
230 221 234 241 251 9 241 257 263 48 340 245 262 240 207 159 202 225 164 154 166 179 198 155 191 197 188 192 223 216 212 214 215 222 216 220 250 215 266 239 252 301 7 324
225 227 229 241 235 232 252 256 116 132 245 249 259 262 296 308 7 224 227 168 164 165 163 171 184 190 191 191 197 211 214 219 223 205 232 234 219 222 235 258 302 316 331 324
226 242 221 230 250 48 275 232 355 205 241 256 198 261 237 101 217 267 213 195 185 150 162 193 174 183 180 177 194 204 200 204 217 194 228 232 233 241 285 263 285 298 324 353
231 229 245 215 238 188 235 47 247 283 258 261 207 249 156 129 30 329 260 199 221 153 166 152 176 174 171 166 172 193 196 205 194 212 197 242 241 250 262 289 304 321 300 329
240 229 232 252 243 241 221 181 238 255 252 256 245 205 172 166 167 214 239 200 195 165 149 155 142 145 151 159 176 186 196 195 193 206 202 227 253 242 247 261 297 326 328 337
229 247 241 236 249 235 236 251 239 239 230 61 39 27 279 165 195 174 159 181 158 155 134 129 126 127 150 163 172 181 191 176 172 177 184 189 219 264 294 344 319 314 334 330
217 215 243 218 231 231 225 230 245 240 65 307 132 208 249 181 135 153 153 152 153 150 135 145 140 147 159 167 173 182 186 176 170 156 158 185 221 61 340 246 309 2 326 326
209 229 212 223 223 236 259 260 254 263 204 255 252 256 232 135 135 156 158 147 154 156 133 140 154 162 167 170 173 185 193 185 164 154 182 202 176 176 265 299 46 319 321 345
256 262 206 190 216 232 212 248 252 273 173 222 231 131 132 133 165 183 159 153 154 146 151 148 158 156 163 167 172 178 179 169 162 189 189 146 134 29 16 46 28 18 358 351
250 262 253 205 202 219 223 233 265 260 270 293 250 118 82 88 325 159 168 169 159 150 163 152 147 143 154 162 166 171 166 165 165 182 144 184 99 351 66 355 360 2 1 356
223 253 255 249 195 212 235 218 214 239 217 256 278 147 38 329 258 160 173 183 161 154 163 147 143 148 148 159 166 169 174 160 171 178 184 141 157 143 151 194 320 323 326 341
207 240 260 246 238 186 225 240 229 243 255 264 318 110 347 353 338 334 161 166 153 152 149 146 140 145 152 161 165 163 165 161 173 196 151 160 155 104 357 345 312 325 308 318
263 231 239 244 232 283 210 237 241 254 256 82 77 120 92 259 329 318 150 162 157 161 150 148 146 151 158 167 171 174 167 172 184 165 163 179 175 193 242 276 295 299 312 320
228 241 247 179 182 268 230 216 226 273 281 89 168 134 115 101 285 272 263 167 174 159 145 149 159 158 169 173 174 178 172 183 189 172 197 214 208 240 284 291 310 323 315 318
216 233 241 257 212 270 304 201 251 244 298 115 150 122 168 192 195 259 218 160 165 138 147 151 159 169 174 182 184 189 194 194 203 189 193 202 225 242 288 305 315 323 319 320
216 224 232 220 166 245 265 212 222 193 317 289 183 157 169 170 304 262 164 169 160 148 155 166 166 164 179 188 194 199 204 207 202 196 194 205 241 292 296 308 314 317 317 319
205 219 228 242 154 233 229 247 183 149 175 254 91 137 156 151 214 152 157 167 161 159 162 166 163 176 194 192 185 185 187 183 208 240 242 260 279 286 309 323 318 312 311 318
188 209 222 237 231 194 262 217 184 253 233 118 217 138 122 124 122 109 129 126 132 146 159 162 157 174 182 172 168 170 151 94 350 277 272 281 312 308 306 302 306 311 317 323
215 195 217 224 251 235 249 335 19 134 198 280 59 77 132 164 167 105 102 118 122 129 159 162 153 145 134 162 169 146 133 147 156 55 306 293 297 306 326 311 307 317 321 330
228 189 205 228 213 93 113 292 27 142 29 49 71 75 66 69 110 120 110 110 116 118 125 137 147 146 141 172 174 164 152 160 285 155 251 291 299 329 307 304 314 342 5 13
235 210 209 216 209 124 31 239 197 154 342 85 94 101 105 113 117 122 123 126 127 129 131 137 140 129 144 152 173 165 180 180 164 204 283 298 310 321 323 351 16 25 9 352
148 2 89 33 7 324 335 327 340 138 161 91 103 118 122 125 126 128 126 129 131 134 130 128 130 133 143 167 201 197 144 136 158 336 344 331 338 358 18 43 12 24 348 1
340 1 103 158 275 24 339 324 319 346 111 122 115 120 126 129 133 134 137 140 143 145 146 143 142 148 157 161 149 140 129 283 19 14 357 19 3 18 29 49 11 17 3 5
21 310 218 89 198 138 226 227 236 237 175 127 125 132 131 138 140 145 148 151 152 158 161 158 157 152 149 149 148 142 117 68 48 26 56 87 16 22 27 360 354 356 358 6
330 3 3 324 184 194 174 209 188 207 167 150 148 147 154 158 152 152 154 160 166 165 165 156 153 150 153 159 163 134 73 70 117 128 129 15 66 15 6 10 355 352 358 7